Columbia, SC

1:06 PM EDT on August 30, 2016 (GMT -0400)
Columbia Owens Downtown

Weather History for KCUB - July, 2013

Change the Weather History Date:

Friday, July 19, 2013

  Actual Average Record
Temperature  
Mean Temperature 83 °F 83 °F  
Max Temperature 92 °F 93 °F 102 °F (2002)
Min Temperature 74 °F 73 °F 68 °F (2004)
Degree Days  
Heating Degree Days 0 0  
Month to date heating degree days 0 0  
Since 1 June heating degree days 0 0  
Since 1 July heating degree days 0 0  
Cooling Degree Days 18 18  
Month to date cooling degree days 302 335  
Year to date cooling degree days 1069 1104  
Since 1 June cooling degree days 759 768  
Growing Degree Days 32 (Base 50)    
Moisture  
Dew Point 72 °F    
Average Humidity 75    
Maximum Humidity 94    
Minimum Humidity 49    
Precipitation  
Precipitation 0.00 in 0.14 in 1.08 in (2005)
Month to date precipitation 8.98 3.47  
Year to date precipitation 32.52 25.20  
Sea Level Pressure  
Sea Level Pressure 30.08 in    
Wind  
Wind Speed 4 mph (South)    
Max Wind Speed 15 mph    
Max Gust Speed 23 mph    
Visibility 10 miles    
Events      
T = Trace of Precipitation, MM = Missing Value Source: NWS Daily Summary

Daily Weather History Graph

Daily Weather History Graph

Search for Another Location

Airport or City:

Trip Planner

Search our weather history database for the weather conditions in past years. The results will help you decide how hot, cold, wet, or windy it might be!

Date:

Astronomy

Jul. 19, 2013 Rise Set
Actual Time 6:26 AM EDT 8:33 PM EDT
Civil Twilight 5:58 AM EDT 9:01 PM EDT
Nautical Twilight 5:23 AM EDT 9:36 PM EDT
Astronomical Twilight 4:46 AM EDT 10:13 PM EDT
Moon 5:34 PM EDT (7/19) 3:05 AM EDT (7/19)
Length of Visible Light 15h 03m
Length of Day
14h 07m
Waxing Gibbous, 86% of the Moon is Illuminated
Jul 19
Waxing Gibbous
Jul 22
Full
Jul 29
Last Quarter
Aug 6
New
Aug 14
First Quarter

Hourly Weather History & Observations

Time (EDT) Temp. Heat Index Dew Point Humidity Pressure Visibility Wind Dir Wind Speed Gust Speed Precip Events Conditions
12:53 AM 79.0 °F - 75.0 °F 88% 30.13 in 10.0 mi Calm Calm - N/A   Mostly Cloudy
1:53 AM 78.1 °F - 73.9 °F 87% 30.12 in 10.0 mi SSW 3.5 mph - N/A   Clear
2:53 AM 77.0 °F - 73.0 °F 88% 30.11 in 10.0 mi Calm Calm - N/A   Clear
3:53 AM 75.9 °F - 73.0 °F 91% 30.11 in 10.0 mi Calm Calm - N/A   Clear
4:53 AM 75.9 °F - 73.0 °F 91% 30.10 in 10.0 mi Calm Calm - N/A   Clear
5:53 AM 75.0 °F - 73.0 °F 94% 30.10 in 10.0 mi Calm Calm - N/A   Clear
6:53 AM 73.9 °F - 72.0 °F 93% 30.12 in 7.0 mi Calm Calm - N/A   Clear
7:53 AM 75.9 °F - 73.0 °F 91% 30.13 in 10.0 mi South 3.5 mph - N/A   Clear
8:53 AM 79.0 °F - 73.0 °F 82% 30.14 in 10.0 mi Calm Calm - N/A   Partly Cloudy
9:53 AM 82.0 °F 86.7 °F 72.0 °F 71% 30.14 in 10.0 mi South 5.8 mph - N/A   Partly Cloudy
10:53 AM 84.9 °F 89.4 °F 70.0 °F 61% 30.14 in 10.0 mi SSW 5.8 mph - N/A   Partly Cloudy
11:53 AM 86.0 °F 91.5 °F 71.1 °F 61% 30.14 in 10.0 mi SSE 5.8 mph - N/A   Partly Cloudy
12:53 PM 88.0 °F 92.9 °F 70.0 °F 55% 30.12 in 10.0 mi Variable 6.9 mph - N/A   Clear
1:53 PM 89.1 °F 92.9 °F 68.0 °F 50% 30.09 in 10.0 mi SE 3.5 mph - N/A   Clear
2:53 PM 90.0 °F 95.4 °F 70.0 °F 52% 30.06 in 10.0 mi Variable 5.8 mph - N/A   Partly Cloudy
3:53 PM 91.0 °F 96.6 °F 70.0 °F 50% 30.05 in 10.0 mi Calm Calm - N/A   Mostly Cloudy
4:53 PM 87.1 °F 94.5 °F 73.0 °F 63% 30.04 in 10.0 mi South 15.0 mph 23.0 mph N/A   Mostly Cloudy
5:53 PM 86.0 °F 93.0 °F 73.0 °F 65% 30.03 in 10.0 mi SSE 9.2 mph 17.3 mph N/A   Mostly Cloudy
6:53 PM 86.0 °F 91.5 °F 71.1 °F 61% 30.00 in 10.0 mi SSE 6.9 mph - N/A   Clear
7:53 PM 84.9 °F 92.1 °F 73.9 °F 69% 30.01 in 10.0 mi Variable 4.6 mph - N/A   Clear
8:53 PM 82.0 °F 87.9 °F 73.9 °F 76% 30.03 in 10.0 mi Calm Calm - N/A   Clear
9:41 PM 80.6 °F 85.4 °F 73.4 °F 79% 30.05 in 10.0 mi SSE 4.6 mph - N/A   Mostly Cloudy
9:51 PM 80.6 °F 85.4 °F 73.4 °F 79% 30.05 in 10.0 mi South 6.9 mph - N/A   Scattered Clouds
9:53 PM 81.0 °F 86.2 °F 73.9 °F 79% 30.04 in 10.0 mi South 5.8 mph - N/A   Scattered Clouds
10:53 PM 79.0 °F - 73.0 °F 82% 30.07 in 10.0 mi South 5.8 mph - N/A   Partly Cloudy
11:53 PM 78.1 °F - 73.0 °F 84% 30.08 in 10.0 mi South 4.6 mph - N/A   Clear